Location: Buckland
(65.9785°N, 161.1281°W)
Time: 22:00:35
(UTC+00:00)

Transit 4A - Pass Details

Date: 30 November 2020
Orbit: 864 x 981 km, 66.8° (Epoch: 19 January)

Event Time Altitude Azimuth Distance (km) Brightness Sun altitude
Rises 03:05:16 0° 307° (NW) 3,696 11.4 -11.3°
Reaches altitude 10° 03:08:08 10° 297° (WNW) 2,741 10.8 -11.6°
Maximum altitude 03:13:36 31° 239° (WSW) 1,645 10.1 -12.1°
Drops below altitude 10° 03:18:59 10° 180° (S) 2,688 10.7 -12.6°
Sets 03:21:46 0° 170° (S) 3,614 11.2 -12.8°
